Regional Weather Roundup
Issued by NWS

Home | Current Version | Previous Version | Graphics & Text | Print | Product List | Glossary On
Versions: 1 2 3 4 5 6 7 8 9 10 11 12 13 14 15 16 17 18 19 20 21 22 23 24 25 26 27 28 29 30 31 32 33 34 35 36 37 38 39 40 41 42 43 44 45 46 47 48 49 50
000
ASUS43 KDTX 022210
RWRMI
MICHIGAN HOURLY REGIONAL WEATHER ROUNDUP
NATIONAL WEATHER SERVICE DETROIT/PONTIAC MI
600 PM EDT SUN AUG 02 2015

NOTE: "FAIR" INDICATES FEW OR NO CLOUDS BELOW 12,000 FEET WITH NO
SIGNIFICANT WEATHER AND/OR OBSTRUCTION TO VISIBILITY.

MIZ047>049-052>055-059>063-066>070-074>076-081>083-022300-
SOUTHEAST LOWER MICHIGAN

CITY           SKY/WX    TMP DP  RH WIND       PRES   REMARKS
ADRIAN         SUNNY     88  62  41 W15G25    29.76F
ALMA           MOSUNNY   86  65  49 SW13G24   29.60F
ANN ARBOR      SUNNY     88  63  43 SW21G26   29.73F
BAD AXE        PTSUNNY   70  66  87 S8        29.60F
DETROIT CITY   SUNNY     90  60  36 SW18G32   29.69F
DETROIT        MOSUNNY   91  61  36 SW22G33   29.72F HX  91
FLINT          MOSUNNY   91  62  37 SW21G32   29.66F HX  91
GROSSE ILE     SUNNY     90  61  37 SW15G22   29.72F
HILLSDALE      MOSUNNY   88  65  46 SW9G25    29.77F HX  90
HOWELL         SUNNY     89  60  37 SW22G29   29.69F

CITY           SKY/WX    TMP DP  RH WIND       PRES   REMARKS
JACKSON        SUNNY     87  65  47 SW22G31   29.73F
LAMBERTVILLE   SUNNY     89  61  38 SW13      29.77F
LANSING        SUNNY     90  62  39 SW25G41   29.66F HX  90
LAPEER         NOT AVBL
MASON          SUNNY     86  61  42 SW14G33   29.70R
MONROE         SUNNY     88  63  42 SW17G29   29.73F
MT. CLEMENS    MOSUNNY   90  61  36 SW21G30   29.65F HX  90
PONTIAC        MOSUNNY   88  62  41 SW20G30   29.68F
PORT HURON     PTSUNNY   88  61  40 SW7G22    29.65F
TRI CITIES     MOSUNNY   88  66  48 SW20G33   29.58F HX  90
YPSILANTI      SUNNY     94  63  35 SW22G31   29.72F HX  95
$$
MIZ043>046-050>051-056>058-064>065-071>073-077>080-022300-
SOUTHWEST LOWER MICHIGAN

CITY           SKY/WX    TMP DP  RH WIND       PRES   REMARKS
BATTLE CREEK   SUNNY     92  59  33 SW28G40   29.71F HX  91
BENTON HARBOR  PTSUNNY   87  67  51 SW13G23   29.69F HX  90
BIG RAPIDS     CLOUDY    83  62  48 SW13G32   29.55F
COLDWATER      SUNNY     87  64  46 SW16G25   29.73F
HOLLAND        SUNNY     87  63  44 SW25G37   29.66S
GRAND RAPIDS   PTSUNNY   90  64  42 SW26G39   29.63F HX  91
KALAMAZOO      SUNNY     91  61  36 SW20G31   29.70F HX  91
MARSHALL       SUNNY     90  64  41 SW23G31   29.71S HX  91
MUSKEGON       PTSUNNY   84  67  56 SW28G39   29.59F
$$
MIZ016>042-022300-
NORTHERN LOWER MICHIGAN

CITY           SKY/WX    TMP DP  RH WIND       PRES   REMARKS
ALPENA         CLOUDY    68  65  90 W7        29.62R
BEAVER ISLAND  CLOUDY    64  62  96 CALM      29.55R
BELLAIRE       LGT RAIN  64  61  88 CALM      29.55F
CADILLAC       HVY RAIN  59  57  95 NE7       29.67R
CHARLEVOIX     CLOUDY    65  62  91 SE10G18   29.55S
FRANKFORT      LGT RAIN  61  60  97 NE5       29.57R
GRAYLING       LGT RAIN  59  57  94 E8        29.67F
HARBOR SPRINGS CLOUDY    64  63  96 E10       29.49F
HOUGHTON LAKE  TSTM      60  57  89 N12       29.68F FOG
MANISTEE       CLOUDY    63  57  82 E5        29.58F
OSCODA         LGT RAIN  67  65  94 SE9       29.54F
PELLSTON       LGT RAIN  65  62  90 S7G21     29.50F
TRAVERSE CITY  TSTM      61  59  93 S7        29.56F
$$
MIZ007>008-015-022300-
EASTERN UPPER MICHIGAN

CITY           SKY/WX    TMP DP  RH WIND       PRES   REMARKS
KINROSS        CLOUDY    64  64 100 CALM      29.57F
MACKINAC ISLAN LGT RAIN  66  64  96 SE6       29.52F
NEWBERRY       CLOUDY    65  64  97 CALM      29.55F
S. S. MARIE    CLOUDY    67  62  84 SW6       29.56F
$$
MIZ004>006-011>014-085-022300-
CENTRAL UPPER MICHIGAN

CITY           SKY/WX    TMP DP  RH WIND       PRES   REMARKS
MANISTIQUE     CLOUDY    66  63  88 W5        29.57R
ESCANABA       CLOUDY    68  63  83 NW3       29.56S
MENOMINEE      CLOUDY    64  57  77 CALM      29.58R
SAWYER-GWINN   CLOUDY    70  59  68 N8        29.59S
$$
MIZ001>003-009>011-084-022300-
WESTERN UPPER MICHIGAN

CITY           SKY/WX    TMP DP  RH WIND       PRES   REMARKS
IRON MOUNTAIN  CLOUDY    74  61  63 NW8       29.58R
HOUGHTON       SUNNY     71  56  58 NW14      29.59S
COPPER HARBOR    N/A     72  60  66 N14       29.56S
IRONWOOD       SUNNY     72  59  64 NW9       29.62S
$$

ABBREVIATIONS USED IN REMARKS
   TC - TEMPERATURE IN CELSIUS
  WCI - WIND CHILL INDEX
   HX - HEAT INDEX
  VSB - VISIBILITY




USA.gov is the U.S. government's official web portal to all federal, state and local government web resources and services.